GW1765 Weather Reports


time (UTC)temp
C
wind
direction
speed
KPH
gust
KPH
rain 1hr
cm
rain 24hr
cm
rain mn
cm
humidity
%
barometer
mb
20260906063110 13 337 17.7 24.1 0.15 0.18 0.18 99 1007.0
20260906062106 13 309 19.3 24.1 0.13 0.15 0.15 99 1007.1
20260906061100 12 355 20.9 27.4 0.13 0.15 0.15 98 1007.4
20260906060057 12 15 22.5 30.6 0.13 0.15 0.15 98 1007.4
20260906055055 12 319 24.1 35.4 0.10 0.13 0.13 97 1007.6
20260906054111 12 336 25.7 37.0 0.05 0.10 0.10 97 1007.5
20260906053046 12 12 24.1 40.2 0.00 0.03 0.03 97 1007.4
20260906052044 12 346 24.1 37.0 0.00 0.03 0.03 96 1007.6
20260906051039 12 354 30.6 43.5 0.00 0.03 0.03 96 1007.8
20260906050037 12 350 25.7 38.6 0.00 0.03 0.03 96 1007.8
20260906045054 12 334 25.7 37.0 0.00 0.03 0.03 95 1008.1
20260906044029 12 350 27.4 37.0 0.00 0.03 0.03 95 1008.3
20260906043026 12 325 30.6 43.5 0.00 0.03 0.03 95 1008.3
20260906042021 12 342 25.7 46.7 0.00 0.03 0.03 96 1008.6
20260906041018 12 354 29.0 43.5 0.03 0.03 0.03 96 1008.8
20260906040115 12 322 37.0 57.9 0.03 0.03 0.03 95 1008.9
20260906035111 12 334 32.2 48.3 0.03 0.03 0.03 93 1009.0
20260906034129 12 332 29.0 40.2 0.03 0.03 0.03 93 1009.3
20260906033106 12 355 29.0 41.8 0.03 0.03 0.03 92 1009.5
20260906032102 12 356 29.0 37.0 0.03 0.03 0.03 91 1009.6
20260906031058 12 3 27.4 43.5 0.00 0.00 0.00 90 1009.9
20260906030057 12 339 25.7 35.4 0.00 0.00 0.00 89 1010.1
20260906025054 12 344 29.0 45.1 0.00 0.00 0.00 88 1010.2
20260906024047 12 346 27.4 40.2 0.00 0.00 0.00 87 1010.1
20260906023045 12 340 29.0 45.1 0.00 0.00 0.00 85 1010.1
20260906022040 12 5 29.0 37.0 0.00 0.00 0.00 84 1010.2
20260906021037 13 4 30.6 43.5 0.00 0.00 0.00 84 1010.3
20260906020053 13 0 30.6 41.8 0.00 0.00 0.00 83 1010.4
20260906015030 13 336 30.6 48.3 0.00 0.03 0.00 83 1010.7
20260906014026 13 0 30.6 43.5 0.00 0.03 0.00 82 1010.9
20260906013024 13 357 33.8 59.5 0.00 0.03 0.00 81 1011.0
20260906012022 13 339 37.0 54.7 0.00 0.03 0.00 81 1011.2
20260906011016 13 348 30.6 43.5 0.00 0.03 0.00 80 1011.4
20260906010115 13 336 33.8 45.1 0.00 0.03 0.00 80 1011.6
20260906005111 13 356 38.6 54.7 0.00 0.03 0.00 80 1011.8
20260906004106 13 355 33.8 48.3 0.00 0.03 0.00 80 1012.1
20260906003144 13 346 33.8 51.5 0.00 0.03 0.00 81 1012.4
20260906002122 13 359 32.2 57.9 0.00 0.03 0.00 80 1012.7
20260906001025 13 340 35.4 59.5 0.00 0.03 0.00 80 1013.0
20260906000022 13 325 33.8 43.5 0.00 0.03 0.00 78 1013.1
20260905235018 13 353 33.8 48.3 0.00 0.03 0.00 79 1013.3
20260905234115 13 351 35.4 46.7 0.00 0.03 0.00 79 1013.3
20260905233111 13 341 38.6 53.1 0.00 0.03 0.00 78 1013.3
20260905232108 13 320 32.2 54.7 0.00 0.03 0.00 79 1013.4
20260905231106 13 330 35.4 54.7 0.00 0.03 0.00 80 1013.4
20260905225059 13 341 29.0 45.1 0.00 0.03 0.00 80 1014.1
20260905224054 13 338 30.6 45.1 0.00 0.03 0.00 81 1014.2
20260905223113 13 341 29.0 40.2 0.00 0.03 0.00 81 1014.2
20260905222047 13 348 25.7 37.0 0.00 0.03 0.00 82 1014.2
20260905221046 13 350 22.5 29.0 0.00 0.03 0.00 83 1014.5
20260905220041 13 343 24.1 33.8 0.00 0.03 0.00 83 1014.8
20260905215058 13 334 22.5 33.8 0.00 0.03 0.00 83 1015.1
20260905214034 13 333 20.9 30.6 0.00 0.03 0.00 84 1015.4
20260905213032 13 346 24.1 33.8 0.00 0.03 0.00 85 1015.5
20260905212028 12 358 22.5 33.8 0.00 0.03 0.00 86 1015.5
20260905211023 12 331 25.7 35.4 0.00 0.03 0.00 87 1015.8
20260905210019 12 349 22.5 35.4 0.00 0.03 0.00 88 1015.9
20260905205018 12 359 20.9 32.2 0.00 0.03 0.00 89 1015.9
20260905204112 12 3 24.1 35.4 0.00 0.03 0.00 91 1015.7
20260905203131 12 349 20.9 30.6 0.00 0.03 0.00 92 1015.8
20260905202105 12 358 17.7 24.1 0.00 0.03 0.00 94 1015.8
20260905201103 12 356 20.9 27.4 0.00 0.03 0.00 94 1015.8
20260905200120 12 342 19.3 25.7 0.00 0.03 0.00 95 1015.8
20260905195055 12 4 16.1 20.9 0.00 0.03 0.00 95 1016.0
20260905194051 12 347 19.3 27.4 0.00 0.03 0.00 96 1016.0
20260905193048 12 344 19.3 24.1 0.00 0.03 0.00 96 1016.0
20260905192045 12 339 16.1 22.5 0.00 0.03 0.00 96 1015.9
20260905191041 12 352 19.3 24.1 0.00 0.03 0.00 96 1015.9
20260905190039 12 3 17.7 27.4 0.00 0.03 0.00 97 1015.8
20260905185034 12 334 14.5 22.5 0.00 0.03 0.00 97 1015.8
20260905184030 12 334 14.5 20.9 0.00 0.03 0.00 97 1015.5
20260905183028 12 351 16.1 22.5 0.00 0.03 0.00 98 1015.4
20260905182045 12 351 14.5 24.1 0.00 0.03 0.00 98 1015.4
20260905181019 11 13 16.1 22.5 0.00 0.03 0.00 98 1015.4
20260905180018 11 360 16.1 22.5 0.00 0.03 0.00 98 1015.4
20260905175113 11 358 12.9 17.7 0.00 0.03 0.00 98 1015.5
20260905174109 11 353 11.3 17.7 0.00 0.03 0.00 98 1015.4
20260905173106 11 355 12.9 19.3 0.00 0.03 0.00 98 1015.5
20260905172122 11 0 12.9 17.7 0.00 0.03 0.00 98 1015.6
20260905171100 11 0 12.9 17.7 0.00 0.03 0.00 98 1015.6
20260905170056 11 0 11.3 17.7 0.00 0.03 0.00 98 1015.7
20260905165053 12 344 14.5 17.7 0.00 0.03 0.00 98 1015.6
20260905164048 11 355 16.1 20.9 0.00 0.03 0.00 98 1015.5
20260905163044 11 336 16.1 24.1 0.00 0.03 0.00 98 1015.5
20260905162042 11 331 14.5 22.5 0.00 0.03 0.00 98 1015.7
20260905161037 11 349 9.7 12.9 0.00 0.03 0.00 98 1015.6
20260905160036 11 345 12.9 19.3 0.00 0.03 0.00 98 1015.5
20260905155031 11 355 12.9 17.7 0.00 0.03 0.00 98 1015.4
20260905154027 11 334 9.7 12.9 0.00 0.03 0.00 98 1015.4
20260905153024 11 4 11.3 16.1 0.00 0.03 0.00 97 1015.3
20260905152020 11 345 11.3 14.5 0.00 0.03 0.00 97 1015.5
20260905151039 11 0 9.7 14.5 0.00 0.03 0.00 97 1015.8
20260905150113 11 351 12.9 16.1 0.00 0.03 0.00 97 1015.9
20260905145112 11 346 11.3 16.1 0.00 0.03 0.00 97 1016.0
20260905144107 11 340 9.7 14.5 0.00 0.03 0.00 97 1016.0
20260905143104 11 315 11.3 17.7 0.00 0.03 0.00 97 1016.2
20260905142059 12 345 14.5 17.7 0.00 0.03 0.00 97 1016.4
20260905141056 12 315 16.1 20.9 0.00 0.03 0.00 96 1016.6
20260905140052 12 327 11.3 20.9 0.00 0.03 0.00 96 1016.5
20260905135049 12 329 11.3 16.1 0.00 0.03 0.00 96 1016.7
20260905134045 12 318 11.3 17.7 0.00 0.03 0.00 96 1017.1
20260905133042 12 315 12.9 14.5 0.00 0.03 0.00 96 1017.1
20260905132038 12 315 11.3 16.1 0.00 0.03 0.00 96 1017.1
20260905131036 12 295 9.7 14.5 0.00 0.03 0.00 95 1017.1
20260905130031 12 308 9.7 17.7 0.00 0.03 0.00 95 1017.1
20260905125028 12 315 14.5 20.9 0.00 0.03 0.00 95 1017.1
20260905124026 12 315 11.3 17.7 0.00 0.03 0.00 95 1017.1
20260905123021 12 315 11.3 17.7 0.00 0.03 0.00 95 1017.0
20260905122018 12 306 11.3 17.7 0.00 0.03 0.00 94 1017.0
20260905121114 12 315 16.1 24.1 0.00 0.03 0.00 94 1017.1
20260905120111 12 309 9.7 16.1 0.00 0.03 0.00 94 1017.2
20260905115107 12 308 9.7 16.1 0.00 0.03 0.03 94 1017.3
20260905114124 12 315 12.9 17.7 0.00 0.03 0.03 94 1017.3
20260905113122 12 323 12.9 16.1 0.00 0.03 0.03 94 1017.4
20260905112056 12 318 12.9 17.7 0.00 0.03 0.03 94 1017.5
20260905111054 12 322 11.3 17.7 0.00 0.03 0.03 94 1017.5
20260905110050 12 315 11.3 17.7 0.00 0.03 0.03 94 1017.7
20260905105048 12 325 8.0 12.9 0.00 0.03 0.03 93 1017.7
20260905104103 12 321 9.7 12.9 0.00 0.03 0.03 93 1017.9
20260905103102 12 315 11.3 17.7 0.00 0.03 0.03 93 1017.9
20260905102036 12 318 11.3 17.7 0.00 0.03 0.03 93 1017.9
20260905101032 12 315 14.5 17.7 0.00 0.03 0.03 93 1017.9
20260905100029 12 318 14.5 17.7 0.00 0.03 0.03 92 1017.9
20260905095025 12 321 12.9 17.7 0.00 0.03 0.03 92 1017.7
20260905094045 12 315 12.9 17.7 0.00 0.03 0.03 92 1017.6
20260905093021 12 315 12.9 17.7 0.00 0.03 0.03 92 1017.6
20260905092115 12 319 12.9 17.7 0.00 0.03 0.03 91 1017.7
20260905091132 12 315 12.9 16.1 0.00 0.03 0.03 91 1017.8
20260905090108 12 315 11.3 17.7 0.00 0.03 0.03 91 1017.9
20260905085105 12 315 11.3 12.9 0.00 0.03 0.03 91 1017.9
20260905084104 -17 0.0 0.0 0.00 0.03 0.03 1017.8
20260905083059 -17 0.0 0.0 0.00 0.03 0.03 1017.8
20260905082054 11 19.3 20.9 0.00 0.03 0.03 86 1017.7
20260905081113 11 295 16.1 20.9 0.00 0.03 0.03 86 1017.5
20260905080047 11 287 9.7 14.5 0.00 0.03 0.03 86 1017.4
20260905075043 11 315 12.9 19.3 0.00 0.03 0.03 85 1017.4
20260905074040 11 322 12.9 17.7 0.00 0.03 0.03 85 1017.3
20260905073057 11 315 12.9 17.7 0.00 0.03 0.03 84 1017.3
20260905072054 11 315 12.9 24.1 0.00 0.03 0.03 83 1017.1
20260905071051 11 315 12.9 17.7 0.00 0.03 0.03 82 1017.1
20260905070026 11 315 14.5 22.5 0.00 0.03 0.03 82 1017.1
20260905065022 11 315 14.5 19.3 0.00 0.03 0.03 81 1017.1
20260905064019 12 315 12.9 20.9 0.00 0.03 0.03 81 1017.1